Time,TemperatureF,DewpointF,PressureIn,WindDirection,WindDirectionDegrees,WindSpeedMPH,WindSpeedGustMPH,Humidity,HourlyPrecipIn,Conditions,Clouds,dailyrainin,SolarRadiationWatts/m^2,SoftwareType,DateUTC
2013-04-28 00:01:00,68.7,59.7,29.77,SE,132,5.0,16.0,73,0.00,,---,0.00,0.00,VWS V14.00,2013-04-28 05:01:00,
2013-04-28 00:06:00,68.7,59.7,29.77,SE,132,6.0,8.0,73,0.00,,---,0.00,0.00,VWS V14.00,2013-04-28 05:06:00,
2013-04-28 00:11:00,68.7,59.3,29.76,SE,125,9.0,13.0,72,0.00,,---,0.00,0.00,VWS V14.00,2013-04-28 05:11:00,
2013-04-28 00:16:00,68.8,59.0,29.76,ESE,123,12.0,14.0,71,0.00,,---,0.00,0.00,VWS V14.00,2013-04-28 05:16:00,
2013-04-28 00:21:00,68.9,59.1,29.76,ESE,113,6.0,14.0,71,0.00,,---,0.00,0.00,VWS V14.00,2013-04-28 05:21:00,
2013-04-28 00:26:00,68.9,59.1,29.77,ESE,115,7.0,14.0,71,0.00,,---,0.00,0.00,VWS V14.00,2013-04-28 05:26:00,
2013-04-28 00:31:00,68.9,59.1,29.76,ESE,114,8.0,15.0,71,0.00,,---,0.00,0.00,VWS V14.00,2013-04-28 05:31:00,
2013-04-28 00:36:00,68.9,59.5,29.75,ESE,114,8.0,13.0,72,0.00,,---,0.00,0.00,VWS V14.00,2013-04-28 05:36:00,
2013-04-28 00:41:00,68.8,59.4,29.75,ESE,113,11.0,15.0,72,0.00,,---,0.00,0.00,VWS V14.00,2013-04-28 05:41:00,
2013-04-28 00:46:00,68.6,59.6,29.77,ESE,113,8.0,9.0,73,0.00,,---,0.00,0.00,VWS V14.00,2013-04-28 05:46:00,
2013-04-28 00:51:00,68.5,59.5,29.76,ESE,113,9.0,11.0,73,0.00,,---,0.00,0.00,VWS V14.00,2013-04-28 05:51:00,
2013-04-28 00:56:00,68.5,59.5,29.75,ESE,113,5.0,12.0,73,0.00,,---,0.00,0.00,VWS V14.00,2013-04-28 05:56:00,
2013-04-28 01:01:00,68.5,59.9,29.76,ESE,113,7.0,12.0,74,0.00,,---,0.00,0.00,VWS V14.00,2013-04-28 06:01:00,
2013-04-28 01:06:00,68.5,59.9,29.76,ESE,113,11.0,12.0,74,0.00,,---,0.00,0.00,VWS V14.00,2013-04-28 06:06:00,
2013-04-28 01:11:00,68.5,59.9,29.76,ESE,113,4.0,12.0,74,0.00,,---,0.00,0.00,VWS V14.00,2013-04-28 06:11:00,
2013-04-28 01:16:00,68.5,60.6,29.76,ESE,113,5.0,12.0,76,0.00,,---,0.00,0.00,VWS V14.00,2013-04-28 06:16:00,
2013-04-28 01:21:00,68.5,61.7,29.76,ESE,112,6.0,12.0,79,0.00,,---,0.00,0.00,VWS V14.00,2013-04-28 06:21:00,
2013-04-28 01:26:00,68.5,62.1,29.75,ESE,113,6.0,12.0,80,0.00,,---,0.00,0.00,VWS V14.00,2013-04-28 06:26:00,
2013-04-28 01:31:00,68.3,62.2,29.76,ESE,113,7.0,13.0,81,0.00,,---,0.00,0.00,VWS V14.00,2013-04-28 06:31:00,
2013-04-28 01:36:00,68.1,62.4,29.76,ESE,113,4.0,9.0,82,0.00,,---,0.00,0.00,VWS V14.00,2013-04-28 06:36:00,
2013-04-28 01:41:00,67.9,62.2,29.77,ESE,113,4.0,9.0,82,0.00,,---,0.00,0.00,VWS V14.00,2013-04-28 06:41:00,
2013-04-28 01:46:00,67.7,62.4,29.76,ESE,113,4.0,8.0,83,0.00,,---,0.00,0.00,VWS V14.00,2013-04-28 06:46:00,
2013-04-28 01:51:00,67.6,62.3,29.76,ESE,113,4.0,8.0,83,0.00,,---,0.00,0.00,VWS V14.00,2013-04-28 06:51:00,
2013-04-28 01:56:00,67.5,62.2,29.76,ESE,113,1.0,6.0,83,0.00,,---,0.00,0.00,VWS V14.00,2013-04-28 06:56:00,
2013-04-28 02:01:00,67.4,62.1,29.75,ESE,113,4.0,6.0,83,0.00,,---,0.00,0.00,VWS V14.00,2013-04-28 07:01:00,
2013-04-28 02:06:00,67.2,62.2,29.74,ESE,113,1.0,11.0,84,0.00,,---,0.00,0.00,VWS V14.00,2013-04-28 07:06:00,
2013-04-28 02:11:00,67.1,62.1,29.75,ESE,113,6.0,11.0,84,0.00,,---,0.00,0.00,VWS V14.00,2013-04-28 07:11:00,
2013-04-28 02:16:00,67.0,62.0,29.74,ESE,113,2.0,9.0,84,0.00,,---,0.00,0.00,VWS V14.00,2013-04-28 07:16:00,
2013-04-28 02:21:00,66.8,62.2,29.74,ESE,113,2.0,9.0,85,0.00,,---,0.00,0.00,VWS V14.00,2013-04-28 07:21:00,
2013-04-28 02:26:00,66.7,62.0,29.74,ESE,113,0.0,6.0,85,0.00,,---,0.00,0.00,VWS V14.00,2013-04-28 07:26:00,
2013-04-28 02:31:00,66.4,61.8,29.73,ESE,113,0.0,6.0,85,0.00,,---,0.00,0.00,VWS V14.00,2013-04-28 07:31:00,
2013-04-28 02:36:00,66.2,61.6,29.74,ESE,113,1.0,4.0,85,0.00,,---,0.00,0.00,VWS V14.00,2013-04-28 07:36:00,
2013-04-28 02:41:00,66.0,61.4,29.74,ESE,113,4.0,4.0,85,0.00,,---,0.00,0.00,VWS V14.00,2013-04-28 07:41:00,
2013-04-28 02:46:00,65.8,61.5,29.73,ESE,113,4.0,6.0,86,0.00,,---,0.00,0.00,VWS V14.00,2013-04-28 07:46:00,
2013-04-28 02:51:00,65.7,61.4,29.73,ESE,113,5.0,6.0,86,0.00,,---,0.00,0.00,VWS V14.00,2013-04-28 07:51:00,
2013-04-28 02:56:00,65.6,61.6,29.74,ESE,113,4.0,6.0,87,0.00,,---,0.00,0.00,VWS V14.00,2013-04-28 07:56:00,
2013-04-28 03:01:00,65.5,61.5,29.74,ESE,113,4.0,7.0,87,0.00,,---,0.00,0.00,VWS V14.00,2013-04-28 08:01:00,
2013-04-28 03:06:00,65.5,61.5,29.74,ESE,113,2.0,5.0,87,0.00,,---,0.00,0.00,VWS V14.00,2013-04-28 08:06:00,
2013-04-28 03:11:00,65.4,61.4,29.74,ESE,113,2.0,7.0,87,0.00,,---,0.00,0.00,VWS V14.00,2013-04-28 08:11:00,
2013-04-28 03:16:00,65.4,61.4,29.74,ESE,113,0.0,5.0,87,0.00,,---,0.00,0.00,VWS V14.00,2013-04-28 08:16:00,
2013-04-28 03:21:00,65.4,61.8,29.73,ESE,113,2.0,5.0,88,0.00,,---,0.00,0.00,VWS V14.00,2013-04-28 08:21:00,
2013-04-28 03:26:00,65.4,61.8,29.74,ESE,113,1.0,5.0,88,0.00,,---,0.00,0.00,VWS V14.00,2013-04-28 08:26:00,
2013-04-28 03:31:00,65.3,61.7,29.74,ESE,113,1.0,5.0,88,0.00,,---,0.00,0.00,VWS V14.00,2013-04-28 08:31:00,
2013-04-28 03:36:00,65.3,61.7,29.74,ESE,113,1.0,2.0,88,0.00,,---,0.00,0.00,VWS V14.00,2013-04-28 08:36:00,
2013-04-28 03:41:00,65.3,61.7,29.74,ESE,113,2.0,2.0,88,0.00,,---,0.00,0.00,VWS V14.00,2013-04-28 08:41:00,
2013-04-28 03:46:00,65.3,61.7,29.74,ESE,113,2.0,5.0,88,0.00,,---,0.00,0.00,VWS V14.00,2013-04-28 08:46:00,
2013-04-28 03:51:00,65.3,61.7,29.74,ESE,113,1.0,5.0,88,0.00,,---,0.00,0.00,VWS V14.00,2013-04-28 08:51:00,
2013-04-28 03:56:00,65.2,61.6,29.75,ESE,113,0.0,5.0,88,0.00,,---,0.00,0.00,VWS V14.00,2013-04-28 08:56:00,
2013-04-28 04:01:00,65.2,61.9,29.74,ESE,113,2.0,5.0,89,0.00,,---,0.00,0.00,VWS V14.00,2013-04-28 09:01:00,
2013-04-28 04:06:00,65.3,62.0,29.75,ESE,113,0.0,4.0,89,0.00,,---,0.00,0.00,VWS V14.00,2013-04-28 09:06:00,
2013-04-28 04:11:00,65.2,61.9,29.75,ESE,113,1.0,5.0,89,0.00,,---,0.00,0.00,VWS V14.00,2013-04-28 09:11:00,
2013-04-28 04:16:00,65.2,61.9,29.75,ESE,113,1.0,4.0,89,0.00,,---,0.00,0.00,VWS V14.00,2013-04-28 09:16:00,
2013-04-28 04:21:00,65.2,61.9,29.75,ESE,113,0.0,4.0,89,0.00,,---,0.00,0.00,VWS V14.00,2013-04-28 09:21:00,
2013-04-28 04:26:00,65.1,61.8,29.75,ESE,113,2.0,2.0,89,0.00,,---,0.00,0.00,VWS V14.00,2013-04-28 09:26:00,
2013-04-28 04:31:00,65.1,61.8,29.75,ESE,113,1.0,2.0,89,0.00,,---,0.00,0.00,VWS V14.00,2013-04-28 09:31:00,
2013-04-28 04:36:00,65.0,61.7,29.75,ESE,113,0.0,0.0,89,0.00,,---,0.00,0.00,VWS V14.00,2013-04-28 09:36:00,
2013-04-28 04:41:00,65.0,62.0,29.75,ESE,113,1.0,2.0,90,0.00,,---,0.00,0.00,VWS V14.00,2013-04-28 09:41:00,
2013-04-28 04:46:00,65.0,62.0,29.75,ESE,113,0.0,4.0,90,0.00,,---,0.00,0.00,VWS V14.00,2013-04-28 09:46:00,
2013-04-28 04:51:00,64.9,61.9,29.75,ESE,113,0.0,4.0,90,0.00,,---,0.00,0.00,VWS V14.00,2013-04-28 09:51:00,
2013-04-28 04:56:00,64.9,61.9,29.75,ESE,113,0.0,2.0,90,0.00,,---,0.00,0.00,VWS V14.00,2013-04-28 09:56:00,
2013-04-28 05:01:00,64.9,61.9,29.75,ESE,113,0.0,2.0,90,0.00,,---,0.00,0.00,VWS V14.00,2013-04-28 10:01:00,
2013-04-28 05:06:00,64.9,61.9,29.75,ESE,113,0.0,1.0,90,0.00,,---,0.00,0.00,VWS V14.00,2013-04-28 10:06:00,
2013-04-28 05:11:00,64.8,61.5,29.75,ESE,113,0.0,5.0,89,0.00,,---,0.00,0.00,VWS V14.00,2013-04-28 10:11:00,
2013-04-28 05:16:00,64.8,61.5,29.75,ESE,113,0.0,0.0,89,0.00,,---,0.00,0.00,VWS V14.00,2013-04-28 10:16:00,
2013-04-28 05:21:00,64.8,61.5,29.75,ESE,113,0.0,0.0,89,0.00,,---,0.00,0.00,VWS V14.00,2013-04-28 10:21:00,
2013-04-28 05:26:00,64.7,61.4,29.75,ESE,113,0.0,0.0,89,0.00,,---,0.00,0.00,VWS V14.00,2013-04-28 10:26:00,
2013-04-28 05:31:00,64.7,61.4,29.74,ESE,113,0.0,0.0,89,0.00,,---,0.00,0.00,VWS V14.00,2013-04-28 10:31:00,
2013-04-28 05:36:00,64.7,61.1,29.74,ESE,113,0.0,0.0,88,0.00,,---,0.00,0.00,VWS V14.00,2013-04-28 10:36:00,
2013-04-28 05:41:00,64.8,61.2,29.75,ESE,113,0.0,0.0,88,0.00,,---,0.00,0.00,VWS V14.00,2013-04-28 10:41:00,
2013-04-28 05:46:00,64.7,61.1,29.74,ESE,113,0.0,0.0,88,0.00,,---,0.00,0.00,VWS V14.00,2013-04-28 10:46:00,
2013-04-28 05:51:00,64.7,61.1,29.74,ESE,113,0.0,0.0,88,0.00,,---,0.00,0.00,VWS V14.00,2013-04-28 10:51:00,
2013-04-28 05:56:00,64.7,61.1,29.75,ESE,113,0.0,0.0,88,0.00,,---,0.00,0.00,VWS V14.00,2013-04-28 10:56:00,
2013-04-28 06:01:00,64.6,60.7,29.74,ESE,113,0.0,0.0,87,0.00,,---,0.00,0.00,VWS V14.00,2013-04-28 11:01:00,
2013-04-28 06:06:00,64.4,60.5,29.74,ESE,113,0.0,0.0,87,0.00,,---,0.00,0.00,VWS V14.00,2013-04-28 11:06:00,
2013-04-28 06:11:00,64.2,60.3,29.74,ESE,113,0.0,0.0,87,0.00,,---,0.00,0.00,VWS V14.00,2013-04-28 11:11:00,
2013-04-28 06:16:00,64.1,60.2,29.74,ESE,113,0.0,0.0,87,0.00,,---,0.00,0.00,VWS V14.00,2013-04-28 11:16:00,
2013-04-28 06:21:00,64.0,60.1,29.74,ESE,113,0.0,0.0,87,0.00,,---,0.00,0.00,VWS V14.00,2013-04-28 11:21:00,
2013-04-28 06:26:00,63.8,60.2,29.74,ESE,113,0.0,0.0,88,0.00,,---,0.00,0.00,VWS V14.00,2013-04-28 11:26:00,
2013-04-28 06:31:00,63.6,60.0,29.74,ESE,113,0.0,0.0,88,0.00,,---,0.00,0.00,VWS V14.00,2013-04-28 11:31:00,
2013-04-28 06:36:00,63.5,59.9,29.74,ESE,113,0.0,0.0,88,0.00,,---,0.00,0.00,VWS V14.00,2013-04-28 11:36:00,
2013-04-28 06:41:00,63.4,59.8,29.74,ESE,113,0.0,0.0,88,0.00,,---,0.00,0.00,VWS V14.00,2013-04-28 11:41:00,
2013-04-28 06:46:00,63.2,59.6,29.74,ESE,113,0.0,0.0,88,0.00,,---,0.00,0.00,VWS V14.00,2013-04-28 11:46:00,
2013-04-28 06:51:00,63.0,59.7,29.74,ESE,113,0.0,0.0,89,0.00,,---,0.00,0.00,VWS V14.00,2013-04-28 11:51:00,
2013-04-28 06:56:00,62.8,59.5,29.74,ESE,113,0.0,0.0,89,0.00,,---,0.00,5.00,VWS V14.00,2013-04-28 11:56:00,
2013-04-28 07:01:00,62.7,59.4,29.74,ESE,113,0.0,0.0,89,0.00,,---,0.00,9.00,VWS V14.00,2013-04-28 12:01:00,
2013-04-28 07:06:00,62.5,59.2,29.74,ESE,113,0.0,2.0,89,0.00,,---,0.00,12.00,VWS V14.00,2013-04-28 12:06:00,
2013-04-28 07:11:00,62.3,59.0,29.74,ESE,113,2.0,2.0,89,0.00,,---,0.00,16.00,VWS V14.00,2013-04-28 12:11:00,
2013-04-28 07:16:00,62.2,59.2,29.74,ESE,113,0.0,1.0,90,0.00,,---,0.00,18.00,VWS V14.00,2013-04-28 12:16:00,
2013-04-28 07:21:00,62.1,59.1,29.74,ESE,113,2.0,2.0,90,0.00,,---,0.00,21.00,VWS V14.00,2013-04-28 12:21:00,
2013-04-28 07:26:00,62.0,59.0,29.74,ESE,113,0.0,4.0,90,0.00,,---,0.00,25.00,VWS V14.00,2013-04-28 12:26:00,
2013-04-28 07:31:00,62.0,59.0,29.75,ESE,113,0.0,4.0,90,0.00,,---,0.00,28.00,VWS V14.00,2013-04-28 12:31:00,
2013-04-28 07:36:00,61.9,58.9,29.75,ESE,113,2.0,2.0,90,0.00,,---,0.00,30.00,VWS V14.00,2013-04-28 12:36:00,
2013-04-28 07:41:00,61.9,59.5,29.75,ESE,113,0.0,4.0,92,0.00,,---,0.00,33.00,VWS V14.00,2013-04-28 12:41:00,
2013-04-28 07:46:00,61.9,58.9,29.75,ESE,113,0.0,4.0,90,0.00,,---,0.00,35.00,VWS V14.00,2013-04-28 12:46:00,
2013-04-28 07:51:00,61.9,58.9,29.75,ESE,113,0.0,4.0,90,0.00,,---,0.00,37.00,VWS V14.00,2013-04-28 12:51:00,
2013-04-28 07:56:00,62.0,59.3,29.75,ESE,113,2.0,4.0,91,0.00,,---,0.00,40.00,VWS V14.00,2013-04-28 12:56:00,
2013-04-28 08:01:00,62.1,59.5,29.75,ESE,113,2.0,4.0,91,0.00,,---,0.00,134.00,VWS V14.00,2013-04-28 13:01:00,
2013-04-28 08:06:00,62.3,59.6,29.75,ESE,113,0.0,0.0,91,0.00,,---,0.00,155.00,VWS V14.00,2013-04-28 13:06:00,
2013-04-28 08:11:00,62.5,59.8,29.75,ESE,113,0.0,0.0,91,0.00,,---,0.00,172.00,VWS V14.00,2013-04-28 13:11:00,
2013-04-28 08:16:00,62.7,60.0,29.75,ESE,113,0.0,1.0,91,0.00,,---,0.00,193.00,VWS V14.00,2013-04-28 13:16:00,
2013-04-28 08:21:00,63.2,60.5,29.75,ESE,113,1.0,6.0,91,0.00,,---,0.00,214.00,VWS V14.00,2013-04-28 13:21:00,
2013-04-28 08:26:00,63.7,61.0,29.75,ESE,113,0.0,5.0,91,0.00,,---,0.00,234.00,VWS V14.00,2013-04-28 13:26:00,
2013-04-28 08:31:00,64.2,61.2,29.75,ESE,113,4.0,5.0,90,0.00,,---,0.00,258.00,VWS V14.00,2013-04-28 13:31:00,
2013-04-28 08:36:00,64.7,61.4,29.75,ESE,113,0.0,7.0,89,0.00,,---,0.00,276.00,VWS V14.00,2013-04-28 13:36:00,
2013-04-28 08:41:00,65.3,61.7,29.75,ESE,113,2.0,7.0,88,0.00,,---,0.00,292.00,VWS V14.00,2013-04-28 13:41:00,
2013-04-28 08:46:00,65.8,61.8,29.75,ESE,113,1.0,9.0,87,0.00,,---,0.00,309.00,VWS V14.00,2013-04-28 13:46:00,
2013-04-28 08:51:00,66.3,61.3,29.74,ESE,113,5.0,9.0,84,0.00,,---,0.00,329.00,VWS V14.00,2013-04-28 13:51:00,
2013-04-28 08:56:00,66.9,61.2,29.74,ESE,113,0.0,8.0,82,0.00,,---,0.00,350.00,VWS V14.00,2013-04-28 13:56:00,
2013-04-28 09:01:00,67.3,61.3,29.74,ESE,113,7.0,8.0,81,0.00,,---,0.00,367.00,VWS V14.00,2013-04-28 14:01:00,
2013-04-28 09:06:00,67.8,61.4,29.74,ESE,113,5.0,7.0,80,0.00,,---,0.00,387.00,VWS V14.00,2013-04-28 14:06:00,
2013-04-28 09:11:00,68.2,60.3,29.74,ESE,113,7.0,13.0,76,0.00,,---,0.00,406.00,VWS V14.00,2013-04-28 14:11:00,
2013-04-28 09:16:00,68.6,60.4,29.74,ESE,113,6.0,11.0,75,0.00,,---,0.00,425.00,VWS V14.00,2013-04-28 14:16:00,
2013-04-28 09:21:00,68.9,60.3,29.74,ESE,113,4.0,11.0,74,0.00,,---,0.00,439.00,VWS V14.00,2013-04-28 14:21:00,
2013-04-28 09:26:00,69.2,60.2,29.74,ESE,113,4.0,7.0,73,0.00,,---,0.00,457.00,VWS V14.00,2013-04-28 14:26:00,
2013-04-28 09:31:00,69.5,60.1,29.73,ESE,113,5.0,9.0,72,0.00,,---,0.00,476.00,VWS V14.00,2013-04-28 14:31:00,
2013-04-28 09:36:00,69.8,60.0,29.73,ESE,113,11.0,11.0,71,0.00,,---,0.00,494.00,VWS V14.00,2013-04-28 14:36:00,
2013-04-28 09:41:00,70.2,60.4,29.74,ESE,113,5.0,11.0,71,0.00,,---,0.00,510.00,VWS V14.00,2013-04-28 14:41:00,
2013-04-28 09:46:00,70.6,60.8,29.73,ESE,113,5.0,6.0,71,0.00,,---,0.00,527.00,VWS V14.00,2013-04-28 14:46:00,
2013-04-28 09:51:00,71.0,60.3,29.73,ESE,113,7.0,7.0,69,0.00,,---,0.00,541.00,VWS V14.00,2013-04-28 14:51:00,
2013-04-28 09:56:00,71.1,60.4,29.73,ESE,113,7.0,8.0,69,0.00,,---,0.00,557.00,VWS V14.00,2013-04-28 14:56:00,
2013-04-28 10:01:00,71.4,59.9,29.74,ESE,113,5.0,9.0,67,0.00,,---,0.00,573.00,VWS V14.00,2013-04-28 15:01:00,
2013-04-28 10:06:00,71.5,60.0,29.73,ESE,113,6.0,6.0,67,0.00,,---,0.00,591.00,VWS V14.00,2013-04-28 15:06:00,
2013-04-28 10:11:00,71.9,60.4,29.74,ESE,113,6.0,7.0,67,0.00,,---,0.00,606.00,VWS V14.00,2013-04-28 15:11:00,
2013-04-28 10:16:00,72.3,60.3,29.74,ESE,113,2.0,8.0,66,0.00,,---,0.00,626.00,VWS V14.00,2013-04-28 15:16:00,
2013-04-28 10:21:00,72.8,60.4,29.75,ESE,113,2.0,8.0,65,0.00,,---,0.00,638.00,VWS V14.00,2013-04-28 15:21:00,
2013-04-28 10:26:00,73.3,60.4,29.74,ESE,114,2.0,11.0,64,0.00,,---,0.00,656.00,VWS V14.00,2013-04-28 15:26:00,
2013-04-28 10:31:00,73.8,60.9,29.74,ESE,114,2.0,11.0,64,0.00,,---,0.00,671.00,VWS V14.00,2013-04-28 15:31:00,
2013-04-28 10:36:00,74.2,60.8,29.74,ESE,114,0.0,7.0,63,0.00,,---,0.00,686.00,VWS V14.00,2013-04-28 15:36:00,
2013-04-28 10:41:00,74.6,60.7,29.74,ESE,114,7.0,9.0,62,0.00,,---,0.00,700.00,VWS V14.00,2013-04-28 15:41:00,
2013-04-28 10:46:00,74.9,61.0,29.73,ESE,114,12.0,12.0,62,0.00,,---,0.00,715.00,VWS V14.00,2013-04-28 15:46:00,
2013-04-28 10:51:00,75.1,60.3,29.73,SE,124,7.0,12.0,60,0.00,,---,0.00,729.00,VWS V14.00,2013-04-28 15:51:00,
2013-04-28 10:56:00,75.3,60.9,29.74,SE,124,5.0,7.0,61,0.00,,---,0.00,740.00,VWS V14.00,2013-04-28 15:56:00,
2013-04-28 11:01:00,75.6,60.8,29.74,SE,124,2.0,8.0,60,0.00,,---,0.00,754.00,VWS V14.00,2013-04-28 16:01:00,
2013-04-28 11:06:00,75.8,60.5,29.73,SE,126,5.0,13.0,59,0.00,,---,0.00,770.00,VWS V14.00,2013-04-28 16:06:00,
2013-04-28 11:11:00,76.1,61.7,29.73,SE,126,1.0,13.0,61,0.00,,---,0.00,782.00,VWS V14.00,2013-04-28 16:11:00,
2013-04-28 11:16:00,76.2,60.4,29.73,SE,126,6.0,9.0,58,0.00,,---,0.00,793.00,VWS V14.00,2013-04-28 16:16:00,
2013-04-28 11:20:00,76.4,60.5,29.73,SE,126,1.0,9.0,58,0.00,,---,0.00,805.00,VWS V14.00,2013-04-28 16:20:00,
2013-04-28 11:25:00,76.7,61.3,29.73,SE,126,4.0,8.0,59,0.00,,---,0.00,816.00,VWS V14.00,2013-04-28 16:25:00,
2013-04-28 11:30:00,77.1,60.2,29.73,SE,135,7.0,13.0,56,0.00,,---,0.00,830.00,VWS V14.00,2013-04-28 16:30:00,
2013-04-28 11:35:00,77.3,60.4,29.73,SE,135,7.0,10.0,56,0.00,,---,0.00,840.00,VWS V14.00,2013-04-28 16:35:00,
2013-04-28 11:40:00,77.4,60.5,29.73,SE,135,0.0,10.0,56,0.00,,---,0.00,853.00,VWS V14.00,2013-04-28 16:40:00,
2013-04-28 11:45:00,77.8,60.4,29.73,SE,135,5.0,8.0,55,0.00,,---,0.00,860.00,VWS V14.00,2013-04-28 16:45:00,
2013-04-28 11:50:00,78.1,60.6,29.73,SE,135,4.0,12.0,55,0.00,,---,0.00,872.00,VWS V14.00,2013-04-28 16:50:00,
2013-04-28 11:55:00,78.4,60.4,29.73,SE,135,5.0,11.0,54,0.00,,---,0.00,882.00,VWS V14.00,2013-04-28 16:55:00,
2013-04-28 12:00:00,78.6,60.1,29.72,SE,135,5.0,11.0,53,0.00,,---,0.00,889.00,VWS V14.00,2013-04-28 17:00:00,
2013-04-28 12:05:00,79.0,61.0,29.72,SE,135,4.0,6.0,54,0.00,,---,0.00,898.00,VWS V14.00,2013-04-28 17:05:00,
2013-04-28 12:10:00,79.3,60.7,29.71,SE,135,0.0,6.0,53,0.00,,---,0.00,907.00,VWS V14.00,2013-04-28 17:10:00,
2013-04-28 12:15:00,79.8,60.1,29.71,SE,135,1.0,7.0,51,0.00,,---,0.00,918.00,VWS V14.00,2013-04-28 17:15:00,
2013-04-28 12:20:00,80.0,60.3,29.71,SE,135,4.0,10.0,51,0.00,,---,0.00,923.00,VWS V14.00,2013-04-28 17:20:00,
2013-04-28 12:25:00,79.9,60.2,29.70,SE,135,0.0,6.0,51,0.00,,---,0.00,925.00,VWS V14.00,2013-04-28 17:25:00,
2013-04-28 12:30:00,80.0,59.7,29.70,SE,135,4.0,9.0,50,0.00,,---,0.00,933.00,VWS V14.00,2013-04-28 17:30:00,
2013-04-28 12:35:00,80.1,59.8,29.70,SE,135,1.0,8.0,50,0.00,,---,0.00,944.00,VWS V14.00,2013-04-28 17:35:00,
2013-04-28 12:40:00,80.4,60.1,29.70,SE,135,4.0,8.0,50,0.00,,---,0.00,949.00,VWS V14.00,2013-04-28 17:40:00,
2013-04-28 12:45:00,80.6,60.3,29.70,SSE,159,7.0,11.0,50,0.00,,---,0.00,951.00,VWS V14.00,2013-04-28 17:45:00,
2013-04-28 12:50:00,80.5,61.3,29.70,SSE,159,2.0,11.0,52,0.00,,---,0.00,954.00,VWS V14.00,2013-04-28 17:50:00,
2013-04-28 12:55:00,80.9,60.0,29.70,SSE,159,7.0,7.0,49,0.00,,---,0.00,995.00,VWS V14.00,2013-04-28 17:55:00,
2013-04-28 13:00:00,81.3,60.9,29.69,SSE,159,2.0,8.0,50,0.00,,---,0.00,988.00,VWS V14.00,2013-04-28 18:00:00,
2013-04-28 13:05:00,81.7,59.5,29.70,SSE,159,5.0,8.0,47,0.00,,---,0.00,1004.00,VWS V14.00,2013-04-28 18:05:00,
2013-04-28 13:10:00,82.0,59.2,29.69,SSE,159,1.0,8.0,46,0.00,,---,0.00,1027.00,VWS V14.00,2013-04-28 18:10:00,
2013-04-28 13:15:00,82.2,59.4,29.69,SSE,159,5.0,9.0,46,0.00,,---,0.00,1056.00,VWS V14.00,2013-04-28 18:15:00,
2013-04-28 13:20:00,82.2,58.8,29.69,SSE,159,0.0,9.0,45,0.00,,---,0.00,1104.00,VWS V14.00,2013-04-28 18:20:00,
2013-04-28 13:25:00,82.5,59.7,29.69,SSE,159,0.0,8.0,46,0.00,,---,0.00,1100.00,VWS V14.00,2013-04-28 18:25:00,
2013-04-28 13:30:00,83.2,60.3,29.68,SSE,159,5.0,8.0,46,0.00,,---,0.00,1065.00,VWS V14.00,2013-04-28 18:30:00,
2013-04-28 13:35:00,83.1,59.6,29.69,SSE,156,7.0,13.0,45,0.00,,---,0.00,1086.00,VWS V14.00,2013-04-28 18:35:00,
2013-04-28 13:40:00,82.9,59.4,29.68,SSE,156,1.0,13.0,45,0.00,,---,0.00,1090.00,VWS V14.00,2013-04-28 18:40:00,
2013-04-28 13:45:00,83.0,59.5,29.68,SSE,156,5.0,7.0,45,0.00,,---,0.00,232.00,VWS V14.00,2013-04-28 18:45:00,
2013-04-28 13:50:00,82.9,58.8,29.68,SSE,156,4.0,11.0,44,0.00,,---,0.00,1058.00,VWS V14.00,2013-04-28 18:50:00,
2013-04-28 13:55:00,83.0,59.5,29.68,SSE,157,4.0,12.0,45,0.00,,---,0.00,450.00,VWS V14.00,2013-04-28 18:55:00,
2013-04-28 14:00:00,83.3,59.1,29.68,SSE,157,0.0,12.0,44,0.00,,---,0.00,1127.00,VWS V14.00,2013-04-28 19:00:00,
2013-04-28 14:05:00,83.5,59.9,29.68,SSE,157,2.0,6.0,45,0.00,,---,0.00,1074.00,VWS V14.00,2013-04-28 19:05:00,
2013-04-28 14:10:00,83.8,60.2,29.67,SSE,157,5.0,9.0,45,0.00,,---,0.00,1062.00,VWS V14.00,2013-04-28 19:10:00,
2013-04-28 14:15:00,84.2,59.3,29.67,SSE,157,6.0,8.0,43,0.00,,---,0.00,1081.00,VWS V14.00,2013-04-28 19:15:00,
2013-04-28 14:20:00,84.2,58.6,29.67,SSE,157,5.0,9.0,42,0.00,,---,0.00,223.00,VWS V14.00,2013-04-28 19:20:00,
2013-04-28 14:25:00,83.8,58.9,29.67,SSE,157,7.0,8.0,43,0.00,,---,0.00,1092.00,VWS V14.00,2013-04-28 19:25:00,
2013-04-28 14:30:00,84.2,59.3,29.66,SSE,157,1.0,11.0,43,0.00,,---,0.00,183.00,VWS V14.00,2013-04-28 19:30:00,
2013-04-28 14:35:00,83.8,58.9,29.66,SSE,157,8.0,11.0,43,0.00,,---,0.00,1053.00,VWS V14.00,2013-04-28 19:35:00,
2013-04-28 14:40:00,83.7,58.2,29.66,SSE,157,4.0,11.0,42,0.00,,---,0.00,190.00,VWS V14.00,2013-04-28 19:40:00,
2013-04-28 14:45:00,83.4,58.6,29.65,SSE,156,10.0,11.0,43,0.00,,---,0.00,253.00,VWS V14.00,2013-04-28 19:45:00,
2013-04-28 14:50:00,83.4,59.2,29.65,SSE,156,7.0,11.0,44,0.00,,---,0.00,1058.00,VWS V14.00,2013-04-28 19:50:00,
2013-04-28 14:55:00,83.8,58.9,29.65,SSE,157,6.0,9.0,43,0.00,,---,0.00,1018.00,VWS V14.00,2013-04-28 19:55:00,
2013-04-28 15:00:00,84.4,58.2,29.65,SSE,157,6.0,9.0,41,0.00,,---,0.00,1048.00,VWS V14.00,2013-04-28 20:00:00,
2013-04-28 15:05:00,84.4,57.5,29.65,SSE,155,2.0,12.0,40,0.00,,---,0.00,1051.00,VWS V14.00,2013-04-28 20:05:00,
2013-04-28 15:10:00,84.3,58.1,29.65,SSE,152,5.0,12.0,41,0.00,,---,0.00,970.00,VWS V14.00,2013-04-28 20:10:00,
2013-04-28 15:15:00,84.4,58.8,29.64,SSE,150,9.0,10.0,42,0.00,,---,0.00,949.00,VWS V14.00,2013-04-28 20:15:00,
2013-04-28 15:20:00,84.9,58.6,29.64,SSE,155,10.0,13.0,41,0.00,,---,0.00,951.00,VWS V14.00,2013-04-28 20:20:00,
2013-04-28 15:25:00,84.7,58.4,29.63,SSE,153,2.0,11.0,41,0.00,,---,0.00,946.00,VWS V14.00,2013-04-28 20:25:00,
2013-04-28 15:30:00,84.8,57.1,29.63,SSE,153,4.0,13.0,39,0.00,,---,0.00,928.00,VWS V14.00,2013-04-28 20:30:00,
2013-04-28 15:35:00,84.9,58.6,29.62,SSE,153,6.0,10.0,41,0.00,,---,0.00,918.00,VWS V14.00,2013-04-28 20:35:00,
2013-04-28 15:40:00,85.0,57.3,29.62,SSE,153,5.0,11.0,39,0.00,,---,0.00,905.00,VWS V14.00,2013-04-28 20:40:00,
2013-04-28 15:45:00,85.1,58.1,29.62,SSE,152,4.0,10.0,40,0.00,,---,0.00,877.00,VWS V14.00,2013-04-28 20:45:00,
2013-04-28 15:50:00,84.8,55.7,29.61,SSE,149,7.0,17.0,37,0.00,,---,0.00,865.00,VWS V14.00,2013-04-28 20:50:00,
2013-04-28 15:55:00,84.4,55.3,29.62,SSE,150,4.0,14.0,37,0.00,,---,0.00,853.00,VWS V14.00,2013-04-28 20:55:00,
2013-04-28 16:00:00,84.6,56.9,29.61,SSE,150,6.0,14.0,39,0.00,,---,0.00,833.00,VWS V14.00,2013-04-28 21:00:00,
2013-04-28 16:05:00,84.9,56.5,29.60,SSE,150,5.0,10.0,38,0.00,,---,0.00,828.00,VWS V14.00,2013-04-28 21:05:00,
2013-04-28 16:10:00,85.1,55.9,29.60,SSE,150,12.0,13.0,37,0.00,,---,0.00,807.00,VWS V14.00,2013-04-28 21:10:00,
2013-04-28 16:15:00,85.0,55.1,29.60,SSE,152,5.0,12.0,36,0.00,,---,0.00,791.00,VWS V14.00,2013-04-28 21:15:00,
2013-04-28 16:20:00,85.0,55.1,29.60,SSE,150,13.0,14.0,36,0.00,,---,0.00,772.00,VWS V14.00,2013-04-28 21:20:00,
2013-04-28 16:25:00,84.7,54.0,29.59,SSE,150,1.0,11.0,35,0.00,,---,0.00,766.00,VWS V14.00,2013-04-28 21:25:00,
2013-04-28 16:30:00,84.5,53.9,29.59,SSE,150,2.0,11.0,35,0.00,,---,0.00,751.00,VWS V14.00,2013-04-28 21:30:00,
2013-04-28 16:35:00,84.9,55.0,29.59,SSE,150,5.0,9.0,36,0.00,,---,0.00,737.00,VWS V14.00,2013-04-28 21:35:00,
2013-04-28 16:40:00,85.3,55.3,29.59,SSE,151,1.0,11.0,36,0.00,,---,0.00,724.00,VWS V14.00,2013-04-28 21:40:00,
2013-04-28 16:45:00,85.5,54.0,29.59,SSE,151,7.0,7.0,34,0.00,,---,0.00,701.00,VWS V14.00,2013-04-28 21:45:00,
2013-04-28 16:50:00,85.5,54.8,29.58,SSE,150,6.0,9.0,35,0.00,,---,0.00,687.00,VWS V14.00,2013-04-28 21:50:00,
2013-04-28 16:55:00,85.5,54.8,29.58,SSE,150,1.0,8.0,35,0.00,,---,0.00,680.00,VWS V14.00,2013-04-28 21:55:00,
2013-04-28 17:00:00,85.1,54.4,29.58,SSE,148,5.0,11.0,35,0.00,,---,0.00,654.00,VWS V14.00,2013-04-28 22:00:00,
2013-04-28 17:05:00,84.9,55.0,29.58,SE,144,9.0,10.0,36,0.00,,---,0.00,640.00,VWS V14.00,2013-04-28 22:05:00,
2013-04-28 17:10:00,84.6,54.7,29.58,SE,140,7.0,13.0,36,0.00,,---,0.00,622.00,VWS V14.00,2013-04-28 22:10:00,
2013-04-28 17:15:00,84.3,53.7,29.57,SE,140,5.0,12.0,35,0.00,,---,0.00,605.00,VWS V14.00,2013-04-28 22:15:00,
2013-04-28 17:20:00,84.4,53.8,29.57,SE,140,6.0,12.0,35,0.00,,---,0.00,594.00,VWS V14.00,2013-04-28 22:20:00,
2013-04-28 17:25:00,84.4,54.6,29.57,SE,140,6.0,8.0,36,0.00,,---,0.00,578.00,VWS V14.00,2013-04-28 22:25:00,
2013-04-28 17:30:00,84.5,53.1,29.57,SE,138,6.0,13.0,34,0.00,,---,0.00,557.00,VWS V14.00,2013-04-28 22:30:00,
2013-04-28 17:35:00,84.5,53.9,29.57,SE,138,10.0,10.0,35,0.00,,---,0.00,545.00,VWS V14.00,2013-04-28 22:35:00,
2013-04-28 17:40:00,84.5,53.9,29.57,SE,138,6.0,10.0,35,0.00,,---,0.00,524.00,VWS V14.00,2013-04-28 22:40:00,
2013-04-28 17:45:00,84.4,53.8,29.57,SE,138,5.0,10.0,35,0.00,,---,0.00,508.00,VWS V14.00,2013-04-28 22:45:00,
2013-04-28 17:50:00,84.4,53.8,29.57,SE,138,5.0,10.0,35,0.00,,---,0.00,492.00,VWS V14.00,2013-04-28 22:50:00,
2013-04-28 17:55:00,84.4,52.2,29.57,SE,138,4.0,9.0,33,0.00,,---,0.00,473.00,VWS V14.00,2013-04-28 22:55:00,
2013-04-28 18:00:00,84.5,51.4,29.57,SE,138,7.0,9.0,32,0.00,,---,0.00,461.00,VWS V14.00,2013-04-28 23:00:00,
2013-04-28 18:05:00,84.6,52.4,29.57,SE,138,6.0,7.0,33,0.00,,---,0.00,441.00,VWS V14.00,2013-04-28 23:05:00,
2013-04-28 18:10:00,84.7,52.4,29.56,SE,138,9.0,9.0,33,0.00,,---,0.00,424.00,VWS V14.00,2013-04-28 23:10:00,
2013-04-28 18:15:00,84.6,51.5,29.56,SE,138,2.0,8.0,32,0.00,,---,0.00,404.00,VWS V14.00,2013-04-28 23:15:00,
2013-04-28 18:20:00,84.6,53.2,29.56,SE,138,4.0,10.0,34,0.00,,---,0.00,385.00,VWS V14.00,2013-04-28 23:20:00,
2013-04-28 18:25:00,84.4,53.0,29.56,SE,138,7.0,11.0,34,0.00,,---,0.00,366.00,VWS V14.00,2013-04-28 23:25:00,
2013-04-28 18:30:00,84.1,52.7,29.56,SE,137,8.0,11.0,34,0.00,,---,0.00,348.00,VWS V14.00,2013-04-28 23:30:00,
2013-04-28 18:35:00,83.8,51.7,29.56,SE,137,7.0,11.0,33,0.00,,---,0.00,329.00,VWS V14.00,2013-04-28 23:35:00,
2013-04-28 18:40:00,83.7,52.4,29.56,SE,137,8.0,12.0,34,0.00,,---,0.00,309.00,VWS V14.00,2013-04-28 23:40:00,
2013-04-28 18:45:00,83.5,51.4,29.56,SE,137,6.0,10.0,33,0.00,,---,0.00,295.00,VWS V14.00,2013-04-28 23:45:00,
2013-04-28 18:50:00,83.4,51.3,29.56,SE,137,5.0,10.0,33,0.00,,---,0.00,272.00,VWS V14.00,2013-04-28 23:50:00,
2013-04-28 18:55:00,83.3,52.0,29.56,SE,137,7.0,9.0,34,0.00,,---,0.00,253.00,VWS V14.00,2013-04-28 23:55:00,
2013-04-28 19:00:00,83.1,52.6,29.56,SE,137,8.0,12.0,35,0.00,,---,0.00,230.00,VWS V14.00,2013-04-29 00:00:00,
2013-04-28 19:05:00,83.0,53.3,29.57,SE,137,5.0,9.0,36,0.00,,---,0.00,207.00,VWS V14.00,2013-04-29 00:05:00,
2013-04-28 19:10:00,82.8,51.6,29.57,SE,137,5.0,11.0,34,0.00,,---,0.00,186.00,VWS V14.00,2013-04-29 00:10:00,
2013-04-28 19:15:00,82.5,52.1,29.57,SE,137,5.0,11.0,35,0.00,,---,0.00,162.00,VWS V14.00,2013-04-29 00:15:00,
2013-04-28 19:20:00,82.3,53.5,29.57,SE,137,4.0,12.0,37,0.00,,---,0.00,141.00,VWS V14.00,2013-04-29 00:20:00,
2013-04-28 19:25:00,82.0,53.2,29.57,SE,136,7.0,12.0,37,0.00,,---,0.00,120.00,VWS V14.00,2013-04-29 00:25:00,
2013-04-28 19:30:00,81.6,55.0,29.57,SE,136,9.0,13.0,40,0.00,,---,0.00,102.00,VWS V14.00,2013-04-29 00:30:00,
2013-04-28 19:35:00,81.3,55.4,29.57,SE,136,7.0,12.0,41,0.00,,---,0.00,40.00,VWS V14.00,2013-04-29 00:35:00,
2013-04-28 19:40:00,80.8,55.6,29.58,SE,135,4.0,12.0,42,0.00,,---,0.00,33.00,VWS V14.00,2013-04-29 00:40:00,
2013-04-28 19:45:00,80.3,55.8,29.58,SE,135,5.0,12.0,43,0.00,,---,0.00,26.00,VWS V14.00,2013-04-29 00:45:00,
2013-04-28 19:50:00,80.0,56.2,29.58,SE,136,7.0,12.0,44,0.00,,---,0.00,21.00,VWS V14.00,2013-04-29 00:50:00,
2013-04-28 19:55:00,79.5,56.9,29.59,SE,136,6.0,12.0,46,0.00,,---,0.00,16.00,VWS V14.00,2013-04-29 00:55:00,
2013-04-28 20:00:00,79.1,57.2,29.58,SE,136,6.0,12.0,47,0.00,,---,0.00,11.00,VWS V14.00,2013-04-29 01:00:00,
2013-04-28 20:05:00,78.7,56.8,29.59,SE,136,5.0,13.0,47,0.00,,---,0.00,7.00,VWS V14.00,2013-04-29 01:05:00,
2013-04-28 20:10:00,78.4,56.5,29.59,SE,136,6.0,13.0,47,0.00,,---,0.00,0.00,VWS V14.00,2013-04-29 01:10:00,
2013-04-28 20:15:00,78.0,56.7,29.59,SE,136,5.0,8.0,48,0.00,,---,0.00,0.00,VWS V14.00,2013-04-29 01:15:00,
2013-04-28 20:20:00,77.6,56.4,29.60,SE,136,1.0,8.0,48,0.00,,---,0.00,0.00,VWS V14.00,2013-04-29 01:20:00,
2013-04-28 20:25:00,77.4,56.8,29.60,SE,136,5.0,8.0,49,0.00,,---,0.00,0.00,VWS V14.00,2013-04-29 01:25:00,
2013-04-28 20:30:00,77.0,57.0,29.60,SE,136,4.0,9.0,50,0.00,,---,0.00,0.00,VWS V14.00,2013-04-29 01:30:00,
2013-04-28 20:35:00,76.7,57.2,29.59,SE,136,6.0,6.0,51,0.00,,---,0.00,0.00,VWS V14.00,2013-04-29 01:35:00,
2013-04-28 20:40:00,76.4,57.0,29.59,SE,136,5.0,8.0,51,0.00,,---,0.00,0.00,VWS V14.00,2013-04-29 01:40:00,
2013-04-28 20:45:00,76.1,57.2,29.59,SE,136,6.0,11.0,52,0.00,,---,0.00,0.00,VWS V14.00,2013-04-29 01:45:00,
2013-04-28 20:50:00,75.8,56.9,29.59,SE,136,6.0,11.0,52,0.00,,---,0.00,0.00,VWS V14.00,2013-04-29 01:50:00,
2013-04-28 20:55:00,75.6,56.8,29.59,SE,136,5.0,8.0,52,0.00,,---,0.00,0.00,VWS V14.00,2013-04-29 01:55:00,
2013-04-28 21:00:00,75.3,57.0,29.60,SE,136,8.0,10.0,53,0.00,,---,0.00,0.00,VWS V14.00,2013-04-29 02:00:00,
2013-04-28 21:05:00,75.2,56.9,29.60,SE,136,6.0,11.0,53,0.00,,---,0.00,0.00,VWS V14.00,2013-04-29 02:05:00,
2013-04-28 21:10:00,75.0,56.7,29.61,SE,136,11.0,11.0,53,0.00,,---,0.00,0.00,VWS V14.00,2013-04-29 02:10:00,
2013-04-28 21:15:00,74.8,57.1,29.61,SE,136,6.0,8.0,54,0.00,,---,0.00,0.00,VWS V14.00,2013-04-29 02:15:00,
2013-04-28 21:20:00,74.7,57.0,29.62,SE,136,2.0,10.0,54,0.00,,---,0.00,0.00,VWS V14.00,2013-04-29 02:20:00,
2013-04-28 21:25:00,74.5,57.3,29.62,SE,136,5.0,8.0,55,0.00,,---,0.00,0.00,VWS V14.00,2013-04-29 02:25:00,
2013-04-28 21:30:00,74.3,57.6,29.63,SE,136,4.0,8.0,56,0.00,,---,0.00,0.00,VWS V14.00,2013-04-29 02:30:00,
2013-04-28 21:35:00,74.1,57.4,29.63,SE,136,6.0,8.0,56,0.00,,---,0.00,0.00,VWS V14.00,2013-04-29 02:35:00,
2013-04-28 21:40:00,73.9,57.7,29.63,SE,136,4.0,9.0,57,0.00,,---,0.00,0.00,VWS V14.00,2013-04-29 02:40:00,
2013-04-28 21:45:00,73.7,58.0,29.63,SE,136,2.0,6.0,58,0.00,,---,0.00,0.00,VWS V14.00,2013-04-29 02:45:00,
2013-04-28 21:50:00,73.5,58.3,29.63,SE,136,8.0,11.0,59,0.00,,---,0.00,0.00,VWS V14.00,2013-04-29 02:50:00,
2013-04-28 21:55:00,73.4,58.2,29.64,SE,136,2.0,7.0,59,0.00,,---,0.00,0.00,VWS V14.00,2013-04-29 02:55:00,
2013-04-28 22:00:00,73.2,58.5,29.65,SE,136,6.0,9.0,60,0.00,,---,0.00,0.00,VWS V14.00,2013-04-29 03:00:00,
2013-04-28 22:05:00,73.1,58.9,29.65,SE,136,7.0,11.0,61,0.00,,---,0.00,0.00,VWS V14.00,2013-04-29 03:05:00,
2013-04-28 22:10:00,73.0,58.8,29.65,SE,136,4.0,11.0,61,0.00,,---,0.00,0.00,VWS V14.00,2013-04-29 03:10:00,
2013-04-28 22:15:00,72.8,59.0,29.65,SE,136,5.0,8.0,62,0.00,,---,0.00,0.00,VWS V14.00,2013-04-29 03:15:00,
2013-04-28 22:20:00,72.7,59.4,29.65,SE,136,4.0,10.0,63,0.00,,---,0.00,0.00,VWS V14.00,2013-04-29 03:20:00,
2013-04-28 22:25:00,72.6,59.3,29.65,SE,136,7.0,11.0,63,0.00,,---,0.00,0.00,VWS V14.00,2013-04-29 03:25:00,
2013-04-28 22:30:00,72.5,59.6,29.66,SE,136,5.0,11.0,64,0.00,,---,0.00,0.00,VWS V14.00,2013-04-29 03:30:00,
2013-04-28 22:35:00,72.4,59.5,29.65,SE,136,2.0,9.0,64,0.00,,---,0.00,0.00,VWS V14.00,2013-04-29 03:35:00,
2013-04-28 22:40:00,72.3,59.5,29.66,SE,136,2.0,10.0,64,0.00,,---,0.00,0.00,VWS V14.00,2013-04-29 03:40:00,
2013-04-28 22:45:00,72.2,59.8,29.66,SE,136,5.0,8.0,65,0.00,,---,0.00,0.00,VWS V14.00,2013-04-29 03:45:00,
2013-04-28 22:50:00,72.1,59.7,29.66,SE,136,6.0,8.0,65,0.00,,---,0.00,0.00,VWS V14.00,2013-04-29 03:50:00,
2013-04-28 22:55:00,71.9,59.9,29.66,SE,136,6.0,10.0,66,0.00,,---,0.00,0.00,VWS V14.00,2013-04-29 03:55:00,
2013-04-28 23:00:00,71.8,59.8,29.66,SE,136,1.0,10.0,66,0.00,,---,0.00,0.00,VWS V14.00,2013-04-29 04:00:00,
2013-04-28 23:01:00,71.8,59.8,29.66,SE,136,4.0,10.0,66,0.00,,---,0.00,0.00,VWS V14.00,2013-04-29 04:01:00,
2013-04-28 23:06:00,71.8,60.3,29.65,SE,136,4.0,7.0,67,0.00,,---,0.00,0.00,VWS V14.00,2013-04-29 04:06:00,
2013-04-28 23:11:00,71.7,60.2,29.66,SE,136,0.0,7.0,67,0.00,,---,0.00,0.00,VWS V14.00,2013-04-29 04:11:00,
2013-04-28 23:16:00,71.6,60.1,29.66,SE,136,2.0,9.0,67,0.00,,---,0.00,0.00,VWS V14.00,2013-04-29 04:16:00,
2013-04-28 23:21:00,71.5,60.4,29.66,SE,136,4.0,9.0,68,0.00,,---,0.00,0.00,VWS V14.00,2013-04-29 04:21:00,
2013-04-28 23:26:00,71.5,60.4,29.66,SE,136,0.0,7.0,68,0.00,,---,0.00,0.00,VWS V14.00,2013-04-29 04:26:00,
2013-04-28 23:31:00,71.4,60.3,29.66,SE,136,2.0,9.0,68,0.00,,---,0.00,0.00,VWS V14.00,2013-04-29 04:31:00,
2013-04-28 23:36:00,71.3,60.6,29.65,SE,136,4.0,8.0,69,0.00,,---,0.00,0.00,VWS V14.00,2013-04-29 04:36:00,
2013-04-28 23:41:00,71.2,60.5,29.66,SE,136,4.0,8.0,69,0.00,,---,0.00,0.00,VWS V14.00,2013-04-29 04:41:00,
2013-04-28 23:46:00,71.1,60.4,29.65,SE,136,4.0,7.0,69,0.00,,---,0.00,0.00,VWS V14.00,2013-04-29 04:46:00,
2013-04-28 23:51:00,71.0,60.7,29.65,SE,136,4.0,7.0,70,0.00,,---,0.00,0.00,VWS V14.00,2013-04-29 04:51:00,
2013-04-28 23:56:00,70.9,60.6,29.65,SE,136,1.0,8.0,70,0.00,,---,0.00,0.00,VWS V14.00,2013-04-29 04:56:00,